Zurück zum Katalog

STARLINK-37959

AktivKommunikationSSO
NORAD 69696·PAYLOAD·🇺🇸 United States

Gestartet Jun 25, 2026 von Vandenberg Space Force Base

Loading…

Nächste Überflüge (nächste 24 Stunden)

TLE

AktuellSource: CelesTrak SupGP

Epoche: Sep 14, 2026, 14:40 UTC

1 69696C 26145V   26257.61159722 -.00017073  00000+0 -53011-3 0  2578
2 69696  97.2842 104.4116 0001733  93.4224 280.2011 15.33439672    13

Verfolge STARLINK-37959 in Echtzeit mit AllMySat

Download on the App Store